Weather History for CYXX - May, 2014

Change the Weather History Date:

Thursday, May 1, 2014

  Actual Average Record
Temperature  
Mean Temperature 66 °F -  
Max Temperature 82 °F 63 °F 86 °F (1998)
Min Temperature 50 °F 44 °F 35 °F (2011)
Cooling Degree Days 1    
Growing Degree Days 16 (Base 50)    
Moisture  
Dew Point 47 °F    
Average Humidity 51    
Maximum Humidity 82    
Minimum Humidity 19    
Precipitation  
Precipitation 0.00 in 0.12 in - ()
Sea Level Pressure  
Sea Level Pressure 30.06 in    
Wind  
Wind Speed 4 mph ()    
Max Wind Speed 9 mph    
Max Gust Speed -    
Visibility 15.0 miles    
Events      
Averages and records for this station are not official NWS values.
T = Trace of Precipitation, MM = Missing Value Source: Averaged Metar Reports

Daily Weather History Graph

Daily Weather History Graph

Search for Another Location

Airport or City:

Trip Planner

Search our weather history database for the weather conditions in past years. The results will help you decide how hot, cold, wet, or windy it might be!

Date:

Astronomy

May. 01, 2014 Rise Set
Actual Time 5:48 AM PDT 8:25 PM PDT
Civil Twilight 5:12 AM PDT 9:01 PM PDT
Nautical Twilight 4:27 AM PDT 9:47 PM PDT
Astronomical Twilight 3:34 AM PDT 10:40 PM PDT
Moon 7:35 AM PDT (5/1) 11:09 PM PDT (5/1)
Length of Visible Light 15h 48m
Length of Day
14h 37m
Waxing Crescent, 7% of the Moon is Illuminated
May 1
Waxing Crescent
May 6
First Quarter
May 14
Full
May 21
Last Quarter
May 28
New

Hourly Weather History & Observations

Time (PDT) Temp. Dew Point Humidity Pressure Visibility Wind Dir Wind Speed Gust Speed Precip Events Conditions
12:00 AM 57.2 °F 51.8 °F 82% 30.19 in 15.0 mi Calm Calm - N/A   Scattered Clouds
1:00 AM 57.2 °F 50.0 °F 77% 30.18 in 15.0 mi Calm Calm - N/A   Scattered Clouds
2:00 AM 59.0 °F 44.6 °F 59% 30.17 in 15.0 mi NE 8.1 mph - N/A   Scattered Clouds
3:00 AM 59.0 °F 44.6 °F 59% 30.16 in 15.0 mi NE 6.9 mph - N/A   Partly Cloudy
4:00 AM 57.2 °F 42.8 °F 59% 30.15 in 15.0 mi NE 5.8 mph - N/A   Scattered Clouds
5:00 AM 54 °F 43 °F 57% 30.14 in 28 mi North 3.5 mph - -   Clear
5:00 AM 53.6 °F 42.8 °F 67% 30.14 in 30.0 mi Variable 2.3 mph - N/A   Scattered Clouds
6:00 AM 51.8 °F 42.8 °F 71% 30.13 in 30.0 mi Variable 2.3 mph - N/A   Scattered Clouds
7:00 AM 57.2 °F 42.8 °F 59% 30.13 in 30.0 mi NNE 5.8 mph - N/A   Mostly Cloudy
8:00 AM 60.8 °F 44.6 °F 55% 30.12 in 30.0 mi NNE 5.8 mph - N/A   Mostly Cloudy
9:00 AM 64.4 °F 46.4 °F 52% 30.10 in 30.0 mi NNE 6.9 mph - N/A   Mostly Cloudy
10:00 AM 68.0 °F 46.4 °F 46% 30.08 in 30.0 mi North 8.1 mph - N/A   Mostly Cloudy
11:00 AM 70 °F 47 °F 33% 30.08 in 28 mi North 3.5 mph - -   Mostly Cloudy
11:00 AM 69.8 °F 48.2 °F 46% 30.07 in 30.0 mi NNE 3.5 mph - N/A   Mostly Cloudy
12:00 PM 73.4 °F 48.2 °F 41% 30.06 in 30.0 mi NNE 4.6 mph - N/A   Mostly Cloudy
1:00 PM 77.0 °F 48.2 °F 36% 30.04 in 30.0 mi Variable 3.5 mph - N/A   Mostly Cloudy
2:00 PM 78.8 °F 48.2 °F 34% 30.03 in 30.0 mi Calm Calm - N/A   Mostly Cloudy
4:00 PM 82.4 °F 50.0 °F 32% 29.98 in 30.0 mi West 4.6 mph - N/A   Mostly Cloudy
5:00 PM 83 °F 48 °F 19% 29.97 in 28 mi West 5.8 mph - -   Clear
5:00 PM 82.4 °F 48.2 °F 30% 29.97 in 30.0 mi West 8.1 mph - N/A   Mostly Cloudy
6:00 PM 80.6 °F 50.0 °F 34% 29.96 in 30.0 mi SW 9.2 mph - N/A   Mostly Cloudy
7:00 PM 78.8 °F 42.8 °F 28% 29.95 in 30.0 mi WSW 8.1 mph - N/A   Mostly Cloudy
8:00 PM 71.6 °F 53.6 °F 53% 29.95 in 30.0 mi SW 5.8 mph - N/A   Scattered Clouds
9:00 PM 66.2 °F 53.6 °F 64% 29.96 in 15.0 mi South 3.5 mph - N/A   Scattered Clouds
10:00 PM 62.6 °F 50.0 °F 63% 29.97 in 15.0 mi WNW 3.5 mph - N/A   Mostly Cloudy
11:00 PM 62 °F 52 °F 61% 29.98 in 15 mi North 1.2 mph - -   Partly Cloudy
11:00 PM 60.8 °F 51.8 °F 72% 29.98 in 15.0 mi Variable 2.3 mph - N/A   Scattered Clouds